Theta_e
340 344 347 347 344 344 347 348 347 347 346 347 345 345 347 346 346 346 344 343 342 340 339 338 338 337 338 337 336 337 337 337 336 336 338 338 335 335 335 337 335 329 334
342 343 346 347 344 343 344 344 345 345 346 346 345 344 345 344 343 343 341 341 338 338 338 337 336 336 335 335 335 335 334 333 335 336 337 336 334 334 336 337 336 331 333
340 343 345 345 344 343 344 345 344 344 345 346 344 344 345 343 342 342 340 341 339 338 337 336 336 335 334 333 333 333 332 332 333 333 336 329 329 332 333 333 333 333 333
341 343 343 344 344 344 345 344 343 344 345 344 342 343 344 342 342 341 338 339 338 338 336 335 335 334 333 333 333 332 330 330 333 334 329 327 327 332 332 331 331 331 330
341 342 342 344 344 343 344 344 344 344 344 344 343 342 341 340 338 339 338 336 336 336 336 335 334 332 332 332 331 330 329 328 332 329 327 327 327 329 331 330 329 329 329
341 341 342 344 343 343 344 343 343 343 344 344 343 342 340 338 337 336 335 334 334 334 335 335 333 332 331 330 329 328 328 328 331 326 326 328 327 330 330 330 329 328 327
338 340 340 343 344 345 345 344 344 343 343 345 342 340 339 338 336 335 334 333 334 334 334 333 332 331 330 329 328 327 326 328 325 325 327 327 328 330 330 329 329 328 327
339 339 338 337 340 342 343 343 343 342 342 343 341 339 337 336 336 335 334 333 333 334 333 332 331 331 330 328 327 326 325 327 324 325 327 328 332 332 332 331 330 329 328
339 339 339 337 337 336 338 339 341 342 342 342 342 340 338 338 337 336 335 333 333 332 332 331 331 330 329 327 326 324 324 325 325 325 324 325 330 333 333 332 331 331 331
338 338 339 337 336 336 338 332 334 335 337 337 336 334 332 333 333 333 332 334 332 330 330 330 328 328 327 326 325 324 323 325 325 326 325 325 329 332 332 333 334 334 334
334 336 339 338 335 334 335 332 330 329 331 330 330 328 328 332 331 330 329 332 331 330 330 328 327 325 325 326 324 324 325 327 326 326 326 326 329 332 333 334 334 335 335
329 333 337 338 334 333 333 334 332 332 334 335 334 334 333 332 330 327 324 326 328 330 328 326 325 325 325 328 327 326 327 327 327 327 325 326 328 331 332 333 333 334 334
330 331 335 339 335 332 331 332 331 329 331 333 334 333 332 330 329 329 328 327 326 322 326 327 328 328 328 328 328 327 327 327 327 327 323 324 327 330 331 332 332 332 331
328 329 333 336 335 332 332 331 331 329 328 330 332 332 331 329 329 329 328 330 331 330 330 330 329 329 328 328 328 328 328 328 328 328 323 320 324 328 330 331 330 328 326
328 329 331 333 334 333 330 329 329 328 328 327 329 330 330 329 328 329 329 330 331 330 330 330 329 329 329 328 328 328 328 328 328 328 327 318 322 326 327 324 322 322 323
329 329 330 331 333 334 329 329 328 328 328 328 329 330 330 330 330 329 329 330 330 331 331 330 329 328 327 328 327 328 328 328 327 326 326 321 320 320 316 317 318 320 321
329 329 329 330 331 334 330 329 328 328 328 329 331 331 330 330 329 329 329 329 330 331 330 330 329 328 326 326 327 327 327 326 325 324 323 323 320 315 313 314 316 316 318
329 326 329 331 331 333 331 330 329 329 328 330 330 331 331 331 330 330 329 329 331 330 330 328 327 326 326 325 323 325 325 325 324 321 321 318 318 315 311 311 312 314 315
325 324 325 329 331 332 331 331 330 330 329 329 331 332 331 330 329 329 328 330 329 328 328 327 325 325 325 323 323 322 323 323 322 319 317 316 313 306 306 310 310 309 309
330 326 324 326 327 330 331 331 330 330 330 331 332 332 331 330 329 328 328 328 327 326 325 325 324 326 325 322 320 320 321 322 320 319 315 310 305 305 305 306 307 306 304
332 330 324 323 325 327 328 327 327 327 329 332 334 333 331 330 329 329 328 328 327 326 327 327 327 324 322 323 319 319 318 320 316 312 309 304 302 303 303 304 302 301 299
331 331 328 324 325 326 328 329 330 331 332 332 335 334 332 331 330 330 329 329 329 328 328 326 324 323 322 321 317 316 310 313 311 311 308 301 300 302 301 302 299 297 297
331 332 331 329 326 326 328 330 332 332 332 332 332 332 331 331 332 332 330 330 329 329 328 327 324 322 320 319 317 313 308 304 303 309 307 300 299 300 301 301 297 296 296
330 333 333 333 331 329 329 330 330 329 327 330 331 332 332 333 332 332 331 330 330 329 325 322 322 323 322 318 314 312 312 308 300 298 303 299 297 298 299 298 296 295 295
329 331 333 333 333 332 332 332 331 329 331 332 331 330 331 331 331 328 327 327 324 322 319 315 316 319 319 316 313 308 306 304 304 299 293 295 296 297 298 296 295 294 294
327 329 331 331 331 333 333 333 331 330 330 330 330 328 326 324 321 320 319 320 318 316 313 314 315 313 310 308 304 303 302 299 299 295 294 294 292 295 297 296 294 293 293
Wind_Speed
9 11 8 10 10 9 9 11 12 13 13 14 15 14 15 16 17 18 19 18 18 17 19 19 19 18 18 18 19 19 18 17 16 17 20 21 20 20 19 19 16 16 18
13 12 9 12 11 10 11 11 11 10 11 14 15 15 14 16 18 20 19 16 17 18 18 19 19 19 18 17 17 17 16 15 12 9 15 17 19 19 18 19 15 16 17
12 12 12 11 11 11 12 11 11 10 11 14 15 14 17 18 17 18 18 15 15 17 18 18 18 18 17 17 17 16 15 12 9 7 8 13 14 17 15 18 18 17 17
11 11 12 10 9 10 12 11 10 11 12 15 14 14 16 16 16 18 17 15 16 16 17 17 17 17 17 17 17 16 13 10 10 9 10 12 13 17 16 15 17 16 15
11 11 12 10 9 9 10 11 10 10 11 14 13 14 16 15 16 16 16 15 16 15 16 17 17 17 16 15 14 13 10 8 8 12 13 12 10 13 15 15 15 15 15
11 10 11 10 9 9 10 10 11 10 11 14 15 15 16 15 15 14 14 15 14 13 15 16 15 16 16 14 14 12 9 10 6 11 11 12 12 14 15 14 15 14 13
11 11 12 9 9 8 13 12 11 9 11 14 15 14 14 13 13 13 13 13 13 13 15 14 14 14 14 13 12 10 9 12 10 10 11 11 10 13 14 13 14 13 13
10 9 12 9 8 10 10 12 11 9 10 13 16 15 14 14 13 13 12 12 12 13 14 13 13 13 12 11 11 9 9 10 10 9 10 9 10 12 12 12 12 11 10
11 10 11 11 10 10 9 10 11 11 11 11 14 14 13 12 12 12 10 11 12 12 12 12 11 11 11 10 8 6 6 8 8 6 9 7 11 11 11 10 8 9 9
8 8 11 11 11 10 10 9 11 11 11 12 12 11 11 11 10 10 10 9 10 11 10 9 9 8 8 7 6 4 5 10 8 6 8 6 11 12 13 14 14 14 13
6 10 10 9 11 11 12 9 10 9 10 11 8 7 10 7 8 9 9 8 9 9 9 7 6 3 2 4 3 4 9 5 6 5 6 9 12 13 14 15 15 17 18
10 9 8 9 10 10 9 11 9 9 8 7 7 6 4 5 7 9 7 7 7 6 5 4 2 4 7 2 2 5 5 5 5 4 7 11 12 13 14 14 15 16 18
13 6 5 9 10 10 9 8 6 5 4 4 6 5 5 6 5 4 5 5 5 6 3 4 2 2 4 4 4 5 5 5 4 4 9 11 13 14 14 14 17 18 20
15 11 7 8 9 10 7 7 7 6 6 5 5 5 4 3 2 2 2 3 2 2 2 1 2 2 2 2 4 5 6 5 5 4 8 12 13 14 15 16 18 19 19
14 12 10 8 9 10 9 7 6 6 5 5 6 5 4 4 3 3 2 2 1 1 1 0 1 2 2 3 3 4 5 5 6 4 4 12 13 14 17 19 19 19 19
13 14 11 7 8 10 8 8 7 6 6 5 5 5 5 4 4 4 3 2 2 1 1 1 2 3 3 3 4 3 4 5 5 6 4 8 13 17 19 19 19 20 20
13 14 15 11 9 10 10 8 7 7 7 6 6 6 5 4 4 3 2 2 1 1 1 2 3 3 4 2 4 3 4 4 5 6 5 5 9 14 19 19 20 19 19
15 16 17 14 12 12 10 8 6 6 6 6 6 7 8 6 5 4 3 3 2 2 1 2 2 3 3 4 4 5 4 3 5 6 7 7 6 6 13 17 19 20 23
17 17 17 17 17 15 12 8 7 8 7 6 6 7 9 8 6 4 2 1 1 2 2 3 2 2 3 5 5 5 4 4 4 6 8 8 8 7 6 12 19 19 20
16 16 17 14 15 14 9 8 7 7 8 8 7 6 8 7 7 6 3 3 3 2 2 1 2 3 2 4 5 4 4 4 4 5 6 7 7 9 8 8 7 9 17
16 16 18 17 16 12 9 8 8 8 8 7 6 7 9 8 9 6 4 4 4 5 5 4 1 2 2 3 5 3 3 5 6 5 7 6 7 7 8 9 7 6 7
18 17 17 17 17 15 10 9 8 8 8 8 7 9 10 8 9 8 6 6 7 4 4 4 3 1 2 3 2 2 2 4 4 5 5 5 6 6 7 9 8 9 8
17 17 17 16 16 16 15 10 8 7 7 8 8 7 9 11 9 9 9 7 6 5 5 4 3 4 2 2 1 2 2 0 1 3 5 5 5 4 5 6 7 9 9
17 16 18 16 16 16 16 13 14 10 9 8 9 8 9 11 10 9 9 7 5 3 5 4 3 4 2 3 2 1 2 3 1 2 3 4 4 4 6 5 6 8 9
17 17 16 17 16 16 17 16 13 13 10 9 9 10 11 8 9 6 6 6 6 4 4 5 3 3 2 1 2 2 2 3 3 1 1 2 3 3 5 5 6 6 8
16 17 16 17 18 17 17 18 17 16 14 10 9 7 7 7 5 5 5 5 5 6 6 5 4 4 2 3 3 2 2 1 3 2 2 2 2 3 3 4 5 6 6
Wind_Direction
125 121 146 125 111 106 100 91 98 98 101 97 91 92 89 87 86 81 78 79 78 75 74 70 68 68 69 69 69 67 66 68 68 74 63 59 59 55 50 36 56 56 51
133 128 136 119 117 114 104 96 91 96 96 101 99 96 95 95 84 83 82 77 83 78 76 71 71 69 68 68 68 66 66 60 42 45 95 75 55 59 53 43 55 58 54
126 122 131 118 121 115 107 101 101 112 107 105 103 96 94 90 91 92 88 82 80 80 79 75 73 72 72 72 70 69 65 56 26 5 81 80 71 60 62 50 48 49 46
136 142 125 113 118 112 104 100 108 99 106 103 105 100 97 94 88 86 85 80 80 83 78 78 73 69 70 71 71 69 63 38 359 36 62 65 64 51 55 55 52 44 41
142 123 113 117 117 117 112 108 108 112 113 112 101 92 86 86 83 80 83 76 76 74 81 78 73 69 70 72 69 62 49 9 344 71 58 51 61 54 55 46 42 42 35
131 125 124 118 122 114 124 120 109 106 106 117 108 95 93 88 85 81 79 80 77 78 82 81 76 73 71 71 66 60 33 350 69 60 60 65 54 48 46 44 40 37 33
112 129 136 119 112 103 130 127 120 113 101 117 108 98 95 93 94 92 88 87 85 89 88 85 78 76 75 72 67 57 19 351 63 63 65 57 54 48 45 39 35 31 25
130 141 135 124 112 94 97 124 121 101 105 108 109 106 103 100 96 92 94 92 90 87 89 81 75 73 76 72 63 45 10 348 71 64 70 65 20 46 44 38 31 23 16
145 145 145 143 125 97 88 87 84 82 78 100 104 98 93 97 99 96 92 90 89 90 89 82 75 73 71 67 58 43 0 338 62 57 56 47 8 22 28 25 9 1 355
156 167 145 147 152 142 128 78 81 74 62 72 89 99 95 92 97 105 110 87 91 87 86 83 78 74 72 66 50 0 302 296 54 50 67 36 8 5 10 7 358 353 347
196 178 153 159 155 146 136 118 104 96 103 105 110 126 165 127 115 96 62 82 92 93 90 86 78 79 134 119 82 298 299 35 38 34 59 28 8 3 4 3 355 356 2
162 218 135 167 158 151 135 152 141 141 162 145 162 175 112 102 72 96 100 97 84 91 96 95 119 236 237 63 109 236 34 9 35 28 69 33 10 5 4 5 3 9 14
166 188 187 180 164 160 157 150 149 157 157 165 160 158 128 132 159 151 146 157 144 207 154 194 185 45 36 9 19 21 10 359 11 18 76 44 17 15 19 22 23 22 20
168 175 201 211 179 164 163 169 158 161 166 169 166 158 156 153 151 151 125 121 152 94 125 54 80 37 14 23 11 0 5 5 10 6 85 59 31 30 32 34 30 24 18
171 172 194 237 195 167 167 165 164 160 177 165 162 174 170 149 163 168 138 148 120 154 112 75 29 8 350 1 354 352 357 358 9 18 70 75 50 44 43 36 30 27 27
181 178 186 219 241 173 183 172 163 164 163 170 174 174 177 166 171 162 168 172 187 243 97 4 11 344 333 340 325 352 348 359 11 27 25 98 83 63 47 41 34 33 33
188 181 182 191 237 193 187 177 182 170 168 180 178 167 177 184 170 202 182 196 175 127 274 244 295 287 294 314 342 323 344 26 27 49 43 50 113 79 57 45 41 39 37
185 187 180 185 199 207 189 185 187 178 190 186 180 180 183 180 186 194 205 215 157 205 254 267 352 321 335 324 335 351 339 26 57 66 65 52 45 44 67 60 53 44 44
191 189 186 187 193 200 194 184 188 192 205 193 191 190 186 191 192 201 204 106 127 277 299 0 301 311 308 330 354 333 347 58 104 70 76 70 56 46 43 75 75 59 44
197 192 188 186 195 194 195 195 190 192 203 202 200 195 188 197 195 197 192 175 195 215 222 192 244 241 297 331 323 325 68 93 89 85 75 66 51 52 49 48 36 74 44
203 199 195 189 193 187 190 194 197 199 200 210 203 182 198 197 200 200 196 201 186 218 212 204 279 278 276 3 301 3 111 108 89 62 67 65 52 57 53 50 47 31 19
203 203 201 196 195 195 189 192 204 198 199 206 197 199 202 194 197 200 204 214 214 217 204 180 191 268 77 38 327 292 172 159 119 93 78 53 51 59 62 68 52 38 24
211 203 204 200 198 197 199 190 198 203 208 203 204 198 204 206 201 200 204 215 209 202 219 177 181 226 206 111 30 295 209 310 21 123 96 59 51 66 67 78 57 40 32
209 209 212 206 201 202 198 197 194 202 197 205 205 197 199 203 207 199 206 214 199 164 160 150 178 241 192 201 155 109 52 32 329 167 127 105 78 75 58 60 44 39 31
204 209 210 209 208 202 201 207 197 205 214 207 212 199 196 195 196 176 180 171 160 142 132 142 177 212 197 170 190 133 95 67 48 17 278 60 91 66 75 58 44 37 29
207 209 209 207 210 208 205 206 209 205 208 212 203 193 188 192 174 175 163 163 148 146 147 160 161 142 121 89 95 94 133 156 160 160 212 258 349 101 63 53 35 30 21